Home   Weather   Rostov-on-Don   Past weeks

Flag for Russia Past Weather in Rostov-on-Don, Russia — Yesterday and Last 2 Weeks

Now
73 °F

Scattered clouds.


Feels Like: 74 °F
Forecast: 58 / 70 °F
Wind: 6 mph from West

Location: Rostov-Na-Donu

Current Time: Aug 31, 2016 at 5:38:05 PM

Latest Report: Aug 31, 2016 at 4:30 PM


Visibility: N/A

Pressure: 29.80 "Hg

Humidity: 78%

Dew Point: 66 °F

Location of Rostov-on-DonLocation

Past Weather in Rostov-on-Don — Graph

°F

Rostov-on-Don Temperature Yesterday

Maximum temperature yesterday: 91 °F (at 1:30 PM)
Minimum temperature yesterday: 70 °F (at 5:00 AM)
Average temperature yesterday: 80 °F

High & Low Weather Summary for the Past Weeks

 TemperatureHumidityPressure
High97 °F (Aug 21, 4:00 PM)94% (Aug 26, 5:00 AM)30.09 "Hg (Aug 26, 5:00 AM)
Low61 °F (Aug 19, 3:00 AM)18% (Aug 22, 3:00 PM)29.77 "Hg (Aug 31, 3:30 PM)
Average78 °F51%29.94 "Hg
* Reported Aug 16 4:00 PM — Aug 31 4:00 PM, Rostov-on-Don, Weather by CustomWeather, © 2016

Note: Actual official high and low records may vary slightly from our data, if they occured in-between our weather recording intervals... More about our weather records

Advertising

Rostov-on-Don Weather History for the Previous 24 Hours

Scroll right to see more
 ConditionsComfort  
Time TempWeatherWind HumidityBarometerVisibility
4:00 PM
Wed, Aug 31
73 °FScattered clouds.3 mph78%29.77 "HgN/A
3:30 PM72 °FScattered clouds.3 mph83%29.77 "HgN/A
3:00 PM72 °FScattered clouds.3 mph83%29.80 "HgN/A
2:30 PM72 °FMild.3 mph83%29.80 "HgN/A
2:00 PM73 °FMild.6 mph78%29.80 "HgN/A
1:30 PM72 °FScattered clouds.3 mph83%29.80 "HgN/A
1:00 PM72 °FScattered clouds.6 mph83%29.80 "HgN/A
12:30 PM72 °FSprinkles. Scattered clouds.8 mph83%29.80 "Hg4 mi
12:00 PM72 °FPassing clouds.8 mph83%29.80 "HgN/A
11:00 AM70 °FScattered clouds.6 mph88%29.80 "HgN/A
10:30 AM68 °FMild.6 mph88%29.80 "HgN/A
10:00 AM68 °FThunderstorms. Cloudy.8 mph88%29.83 "Hg4 mi
9:30 AM66 °FThunderstorms. Cloudy.6 mph88%29.83 "Hg3 mi
9:00 AM64 °FThunderstorms. Cloudy.3 mph94%29.83 "Hg4 mi
8:30 AM64 °FThunderstorms. Broken clouds.3 mph88%29.80 "Hg4 mi
8:00 AM64 °FThunderstorms. Cloudy.6 mph88%29.80 "Hg4 mi
7:30 AM64 °FThunderstorms. Broken clouds.10 mph83%29.80 "Hg1 mi
7:00 AM66 °FThunderstorms. Cloudy.8 mph78%29.80 "Hg5 mi
6:30 AM68 °FThunderstorms. Broken clouds.3 mph69%29.83 "Hg4 mi
6:00 AM68 °FThunderstorms. Scattered clouds.1 mph60%29.80 "HgN/A
5:30 AM68 °FPassing clouds.3 mph56%29.80 "Hg5 mi
5:00 AM68 °FPassing clouds.6 mph53%29.80 "Hg5 mi
4:30 AM70 °FPassing clouds.6 mph46%29.80 "Hg5 mi
4:00 AM70 °FPassing clouds.6 mph43%29.80 "Hg5 mi
3:30 AM70 °FPassing clouds.6 mph43%29.80 "Hg5 mi
3:00 AM72 °FPassing clouds.8 mph38%29.80 "Hg5 mi
2:30 AM73 °FPassing clouds.8 mph33%29.80 "Hg5 mi
2:00 AM73 °FPassing clouds.13 mph33%29.80 "Hg5 mi
1:30 AM73 °FPassing clouds.13 mph33%29.83 "Hg5 mi
1:00 AM75 °FPassing clouds.13 mph31%29.83 "Hg5 mi
12:30 AM75 °FPassing clouds.13 mph34%29.83 "Hg5 mi
12:00 AM75 °FPassing clouds.13 mph34%29.83 "Hg5 mi
11:30 PM
Tue, Aug 30
75 °FPassing clouds.10 mph39%29.83 "Hg5 mi
11:00 PM75 °FPassing clouds.10 mph44%29.83 "Hg5 mi
10:30 PM75 °FPassing clouds.8 mph47%29.86 "Hg5 mi
10:00 PM75 °FPassing clouds.8 mph47%29.86 "Hg5 mi
9:30 PM79 °FPassing clouds.6 mph39%29.86 "Hg5 mi
9:00 PM81 °FPassing clouds.6 mph37%29.86 "Hg5 mi
8:30 PM82 °FPassing clouds.8 mph35%29.86 "Hg5 mi
8:00 PM82 °FPassing clouds.8 mph32%29.86 "Hg5 mi
7:30 PM81 °FPassing clouds.8 mph37%29.86 "Hg5 mi
7:00 PM82 °FPassing clouds.6 mph32%29.86 "HgN/A
6:30 PM86 °FSunny.8 mph29%29.86 "Hg10 mi
6:00 PM88 °FSunny.8 mph29%29.86 "Hg10 mi
5:30 PM90 °FSunny.10 mph26%29.89 "Hg10 mi
5:00 PM90 °FPassing clouds.15 mph26%29.89 "HgN/A
Weather by CustomWeather, © 2016

See weather overviewHow to use our weather pages